| time (UTC) | temp F | wind direction | speed MPH | gust MPH | rain 1hr in | rain 24hr in | rain mn in | humidity % | barometer mb |
| 20260507212704 | 57 | 256 | 3.0 | 7.0 | 0.00 | 0.18 | 0.08 | 48 | 1005.1 |
| 20260507211804 | 58 | 303 | 3.0 | 8.0 | 0.00 | 0.20 | 0.08 | 47 | 1005.1 |
| 20260507210925 | 58 | 281 | 3.0 | 8.0 | 0.00 | 0.24 | 0.08 | 48 | 1005.1 |
| 20260507210005 | 58 | 241 | 3.0 | 8.0 | 0.00 | 0.24 | 0.08 | 47 | 1005.1 |
| 20260507205405 | 58 | 253 | 3.0 | 7.0 | 0.00 | 0.31 | 0.08 | 48 | 1005.1 |
| 20260507204504 | 59 | 252 | 2.0 | 7.0 | 0.00 | 0.34 | 0.08 | 48 | 1005.1 |
| 20260507203604 | 58 | 254 | 3.0 | 8.0 | 0.00 | 0.36 | 0.08 | 48 | 1005.1 |
| 20260507202704 | 58 | 244 | 3.0 | 7.0 | 0.00 | 0.38 | 0.08 | 49 | 1005.1 |
| 20260507201804 | 59 | 239 | 5.0 | 11.0 | 0.00 | 0.40 | 0.08 | 48 | 1005.1 |
| 20260507200925 | 59 | 241 | 5.0 | 9.0 | 0.00 | 0.40 | 0.08 | 47 | 1005.1 |
| 20260507200004 | 60 | 262 | 5.0 | 11.0 | 0.00 | 0.43 | 0.08 | 47 | 1005.1 |
| 20260507195404 | 60 | 274 | 4.0 | 8.0 | 0.00 | 0.46 | 0.08 | 47 | 1005.1 |
| 20260507194504 | 61 | 248 | 4.0 | 10.0 | 0.00 | 0.46 | 0.08 | 48 | 1005.1 |
| 20260507193604 | 61 | 262 | 4.0 | 9.0 | 0.00 | 0.46 | 0.08 | 47 | 1005.1 |
| 20260507192725 | 60 | 281 | 4.0 | 10.0 | 0.00 | 0.48 | 0.08 | 49 | 1005.1 |
| 20260507191805 | 59 | 298 | 5.0 | 10.0 | 0.00 | 0.50 | 0.08 | 50 | 1005.1 |
| 20260507190905 | 59 | 285 | 5.0 | 9.0 | 0.00 | 0.52 | 0.08 | 50 | 1005.1 |
| 20260507190025 | 60 | 233 | 5.0 | 9.0 | 0.00 | 0.52 | 0.08 | 50 | 1005.1 |
| 20260507185426 | 60 | 248 | 5.0 | 9.0 | 0.00 | 0.54 | 0.08 | 50 | 1005.1 |
| 20260507184526 | 59 | 250 | 5.0 | 9.0 | 0.00 | 0.59 | 0.08 | 53 | 1005.1 |
| 20260507183625 | 58 | 247 | 3.0 | 7.0 | 0.00 | 0.65 | 0.08 | 56 | 1005.1 |
| 20260507182704 | 58 | 252 | 4.0 | 9.0 | 0.00 | 0.66 | 0.08 | 58 | 1005.1 |
| 20260507181805 | 57 | 253 | 3.0 | 8.0 | 0.00 | 0.68 | 0.08 | 62 | 1005.1 |
| 20260507180904 | 57 | 249 | 4.0 | 10.0 | 0.00 | 0.68 | 0.08 | 62 | 1005.1 |
| 20260507180004 | 59 | 264 | 3.0 | 8.0 | 0.00 | 0.70 | 0.08 | 61 | 1005.1 |
| 20260507175404 | 58 | 287 | 3.0 | 7.0 | 0.00 | 0.70 | 0.08 | 63 | 1005.1 |
| 20260507174505 | 57 | 268 | 2.0 | 6.0 | 0.00 | 0.70 | 0.08 | 64 | 1005.1 |
| 20260507173604 | 58 | 225 | 4.0 | 8.0 | 0.00 | 0.70 | 0.08 | 63 | 1005.1 |
| 20260507172704 | 58 | 229 | 3.0 | 8.0 | 0.00 | 0.70 | 0.08 | 61 | 1005.1 |
| 20260507171804 | 57 | 248 | 2.0 | 8.0 | 0.00 | 0.70 | 0.08 | 63 | 1005.1 |
| 20260507170904 | 58 | 225 | 2.0 | 6.0 | 0.00 | 0.70 | 0.08 | 61 | 1005.1 |
| 20260507170025 | 58 | 233 | 3.0 | 9.0 | 0.00 | 0.70 | 0.08 | 62 | 1005.1 |
| 20260507165404 | 58 | 247 | 3.0 | 7.0 | 0.00 | 0.70 | 0.08 | 60 | 1005.1 |
| 20260507164505 | 59 | 267 | 3.0 | 8.0 | 0.00 | 0.70 | 0.08 | 62 | 1005.1 |
| 20260507163604 | 59 | 223 | 4.0 | 11.0 | 0.00 | 0.70 | 0.08 | 60 | 1005.1 |
| 20260507162704 | 58 | 228 | 3.0 | 10.0 | 0.00 | 0.70 | 0.08 | 60 | 1005.1 |
| 20260507161804 | 58 | 228 | 3.0 | 8.0 | 0.00 | 0.70 | 0.08 | 62 | 1005.1 |
| 20260507160925 | 59 | 240 | 3.0 | 7.0 | 0.00 | 0.70 | 0.08 | 60 | 1005.1 |
| 20260507160004 | 60 | 238 | 3.0 | 7.0 | 0.00 | 0.70 | 0.08 | 58 | 1005.1 |
| 20260507155404 | 59 | 247 | 3.0 | 7.0 | 0.00 | 0.70 | 0.08 | 58 | 1005.1 |
| 20260507154525 | 58 | 229 | 4.0 | 9.0 | 0.00 | 0.70 | 0.08 | 59 | 1005.1 |
| 20260507153604 | 59 | 213 | 4.0 | 7.0 | 0.00 | 0.70 | 0.08 | 59 | 1005.1 |
| 20260507152704 | 59 | 223 | 4.0 | 8.0 | 0.00 | 0.70 | 0.08 | 60 | 1005.1 |
| 20260507151826 | 59 | 246 | 4.0 | 8.0 | 0.00 | 0.70 | 0.08 | 59 | 1005.1 |
| 20260507150904 | 58 | 219 | 4.0 | 9.0 | 0.00 | 0.70 | 0.08 | 61 | 1005.1 |
| 20260507150004 | 57 | 231 | 2.0 | 8.0 | 0.00 | 0.70 | 0.08 | 66 | 1005.1 |
| 20260507145405 | 57 | 282 | 2.0 | 7.0 | 0.00 | 0.70 | 0.08 | 66 | 1005.1 |
| 20260507144504 | 57 | 316 | 3.0 | 7.0 | 0.00 | 0.70 | 0.08 | 66 | 1005.1 |
| 20260507143604 | 57 | 314 | 3.0 | 12.0 | 0.00 | 0.70 | 0.08 | 68 | 1005.1 |
| 20260507142704 | 56 | 293 | 3.0 | 7.0 | 0.00 | 0.70 | 0.08 | 69 | 1005.1 |
| 20260507141804 | 56 | 258 | 3.0 | 7.0 | 0.00 | 0.70 | 0.08 | 68 | 1005.1 |
| 20260507140904 | 55 | 312 | 3.0 | 7.0 | 0.00 | 0.70 | 0.08 | 69 | 1005.1 |
| 20260507140004 | 55 | 248 | 3.0 | 6.0 | 0.00 | 0.70 | 0.08 | 71 | 1005.1 |
| 20260507135404 | 54 | 236 | 4.0 | 7.0 | 0.00 | 0.70 | 0.08 | 71 | 1005.1 |
| 20260507134504 | 54 | 272 | 3.0 | 6.0 | 0.00 | 0.70 | 0.08 | 72 | 1005.1 |
| 20260507133604 | 54 | 292 | 3.0 | 7.0 | 0.00 | 0.70 | 0.08 | 72 | 1005.1 |
| 20260507132704 | 53 | 294 | 3.0 | 6.0 | 0.00 | 0.70 | 0.08 | 73 | 1005.1 |
| 20260507131826 | 53 | 277 | 3.0 | 8.0 | 0.00 | 0.70 | 0.08 | 72 | 1005.1 |
| 20260507130903 | 52 | 292 | 3.0 | 8.0 | 0.00 | 0.70 | 0.08 | 74 | 1005.1 |
| 20260507130025 | 52 | 302 | 3.0 | 7.0 | 0.00 | 0.70 | 0.08 | 75 | 1005.1 |
| 20260507125404 | 52 | 299 | 3.0 | 7.0 | 0.00 | 0.70 | 0.08 | 76 | 1005.1 |
| 20260507124504 | 52 | 267 | 2.0 | 5.0 | 0.00 | 0.70 | 0.08 | 77 | 1005.1 |
| 20260507123626 | 51 | 269 | 3.0 | 8.0 | 0.00 | 0.70 | 0.08 | 79 | 1005.1 |
| 20260507122705 | 51 | 279 | 3.0 | 5.0 | 0.00 | 0.70 | 0.08 | 80 | 1005.1 |
| 20260507121804 | 51 | 285 | 2.0 | 4.0 | 0.00 | 0.70 | 0.08 | 78 | 1005.1 |
| 20260507120904 | 50 | 281 | 3.0 | 5.0 | 0.00 | 0.70 | 0.08 | 80 | 1005.1 |
| 20260507120005 | 50 | 251 | 2.0 | 5.0 | 0.00 | 0.70 | 0.08 | 81 | 1005.1 |
| 20260507115404 | 50 | 264 | 2.0 | 4.0 | 0.00 | 0.70 | 0.08 | 82 | 1005.1 |
| 20260507114525 | 49 | 287 | 2.0 | 5.0 | 0.00 | 0.70 | 0.08 | 82 | 1005.1 |
| 20260507113625 | 49 | 285 | 2.0 | 5.0 | 0.00 | 0.70 | 0.08 | 84 | 1005.1 |
| 20260507112703 | 48 | 284 | 2.0 | 4.0 | 0.00 | 0.70 | 0.08 | 86 | 1005.1 |
| 20260507111804 | 48 | 243 | 1.0 | 4.0 | 0.00 | 0.70 | 0.08 | 86 | 1005.1 |
| 20260507110905 | 47 | 277 | 1.0 | 3.0 | 0.00 | 0.70 | 0.08 | 90 | 1005.1 |
| 20260507110004 | 46 | 251 | 0.0 | 3.0 | 0.00 | 0.70 | 0.08 | 93 | 1005.1 |
| 20260507105403 | 45 | 243 | 1.0 | 3.0 | 0.00 | 0.70 | 0.08 | 94 | 1005.1 |
| 20260507104525 | 46 | 229 | 1.0 | 2.0 | 0.00 | 0.70 | 0.08 | 93 | 1005.1 |
| 20260507103604 | 45 | 262 | 0.0 | 2.0 | 0.00 | 0.70 | 0.08 | 95 | 1005.1 |
| 20260507102704 | 44 | 200 | 0.0 | 2.0 | 0.00 | 0.70 | 0.08 | 96 | 1005.1 |
| 20260507101804 | 43 | 195 | 1.0 | 2.0 | 0.00 | 0.70 | 0.08 | 96 | 1005.1 |
| 20260507100903 | 43 | 199 | 1.0 | 3.0 | 0.00 | 0.70 | 0.08 | 98 | 1005.1 |
| 20260507100025 | 43 | 233 | 1.0 | 3.0 | 0.00 | 0.70 | 0.08 | 98 | 1005.1 |
| 20260507095404 | 43 | 229 | 1.0 | 2.0 | 0.00 | 0.70 | 0.08 | 97 | 1005.1 |
| 20260507094504 | 44 | 236 | 1.0 | 3.0 | 0.00 | 0.70 | 0.08 | 96 | 1005.1 |
| 20260507093604 | 44 | 284 | 1.0 | 3.0 | 0.00 | 0.70 | 0.08 | 94 | 1005.1 |
| 20260507092725 | 44 | 270 | 2.0 | 4.0 | 0.00 | 0.70 | 0.08 | 94 | 1005.1 |
| 20260507091804 | 44 | 259 | 2.0 | 5.0 | 0.00 | 0.70 | 0.08 | 97 | 1005.1 |
| 20260507090904 | 43 | 216 | 1.0 | 4.0 | 0.00 | 0.70 | 0.08 | 99 | 1005.1 |
| 20260507090006 | 44 | 228 | 1.0 | 3.0 | 0.00 | 0.70 | 0.08 | 99 | 1005.1 |
| 20260507085404 | 44 | 238 | 2.0 | 4.0 | 0.00 | 0.70 | 0.08 | 99 | 1005.1 |
| 20260507084525 | 44 | 245 | 1.0 | 4.0 | 0.00 | 0.70 | 0.08 | 98 | 1005.1 |
| 20260507083605 | 44 | 267 | 1.0 | 4.0 | 0.00 | 0.70 | 0.08 | 97 | 1005.1 |
| 20260507082704 | 44 | 285 | 2.0 | 5.0 | 0.00 | 0.70 | 0.08 | 96 | 1005.1 |
| 20260507081804 | 45 | 304 | 2.0 | 6.0 | 0.00 | 0.70 | 0.08 | 96 | 1005.1 |
| 20260507080904 | 45 | 288 | 2.0 | 6.0 | 0.00 | 0.70 | 0.08 | 96 | 1005.1 |
| 20260507080004 | 45 | 300 | 2.0 | 6.0 | 0.00 | 0.70 | 0.08 | 96 | 1005.1 |
| 20260507075404 | 45 | 299 | 2.0 | 5.0 | 0.00 | 0.70 | 0.08 | 96 | 1005.1 |
| 20260507074504 | 45 | 279 | 3.0 | 7.0 | 0.00 | 0.70 | 0.08 | 96 | 1005.1 |
| 20260507073625 | 45 | 279 | 3.0 | 6.0 | 0.00 | 0.70 | 0.08 | 96 | 1005.1 |
| 20260507072703 | 45 | 295 | 3.0 | 11.0 | 0.00 | 0.70 | 0.08 | 96 | 1005.1 |
| 20260507071804 | 46 | 287 | 3.0 | 7.0 | 0.00 | 0.70 | 0.08 | 96 | 1005.1 |
| 20260507070904 | 46 | 293 | 4.0 | 9.0 | 0.00 | 0.70 | 0.08 | 96 | 1005.1 |
| 20260507070008 | 46 | 290 | 3.0 | 8.0 | 0.00 | 0.70 | 0.08 | 97 | 1005.1 |
| 20260507065404 | 46 | 289 | 3.0 | 6.0 | 0.00 | 0.70 | 0.08 | 98 | 1005.1 |
| 20260507064505 | 46 | 284 | 3.0 | 5.0 | 0.00 | 0.70 | 0.08 | 99 | 1005.1 |
| 20260507063604 | 46 | 305 | 3.0 | 6.0 | 0.00 | 0.70 | 0.08 | 99 | 1005.1 |
| 20260507062704 | 47 | 307 | 2.0 | 6.0 | 0.00 | 0.70 | 0.08 | 99 | 1005.1 |
| 20260507061804 | 47 | 315 | 2.0 | 6.0 | 0.00 | 0.70 | 0.08 | 99 | 1005.1 |
| 20260507060904 | 47 | 305 | 2.0 | 5.0 | 0.00 | 0.70 | 0.08 | 99 | 1005.1 |
| 20260507060004 | 47 | 311 | 2.0 | 4.0 | 0.00 | 0.70 | 0.08 | 99 | 1005.1 |
| 20260507055404 | 47 | 286 | 2.0 | 5.0 | 0.00 | 0.70 | 0.08 | 99 | 1005.1 |
| 20260507054505 | 47 | 288 | 2.0 | 5.0 | 0.02 | 0.70 | 0.08 | 99 | 1005.1 |
| 20260507053603 | 47 | 311 | 2.0 | 5.0 | 0.02 | 0.70 | 0.08 | 99 | 1005.1 |
| 20260507052705 | 47 | 326 | 3.0 | 6.0 | 0.02 | 0.70 | 0.08 | 99 | 1005.1 |
| 20260507051804 | 47 | 319 | 2.0 | 6.0 | 0.02 | 0.70 | 0.08 | 99 | 1005.1 |
| 20260507050903 | 48 | 319 | 2.0 | 7.0 | 0.08 | 0.70 | 0.08 | 99 | 1005.1 |
| 20260507050004 | 48 | 312 | 3.0 | 9.0 | 0.08 | 0.70 | 0.08 | 99 | 1005.1 |
| 20260507045404 | 48 | 311 | 2.0 | 9.0 | 0.08 | 0.70 | 0.08 | 99 | 1005.1 |
| 20260507044525 | 48 | 307 | 3.0 | 6.0 | 0.07 | 0.68 | 0.07 | 99 | 1005.1 |
| 20260507043605 | 49 | 311 | 3.0 | 9.0 | 0.06 | 0.68 | 0.06 | 99 | 1005.1 |
| 20260507042704 | 49 | 307 | 3.0 | 7.0 | 0.06 | 0.68 | 0.06 | 99 | 1005.1 |
| 20260507041825 | 50 | 312 | 3.0 | 8.0 | 0.07 | 0.68 | 0.06 | 99 | 1005.1 |
| 20260507040904 | 51 | 295 | 3.0 | 6.0 | 0.04 | 0.62 | 0.00 | 99 | 1005.1 |
| 20260507040004 | 51 | 302 | 3.0 | 6.0 | 0.04 | 0.62 | 0.00 | 99 | 1005.1 |
| 20260507035403 | 51 | 316 | 3.0 | 8.0 | 0.04 | 0.62 | 0.62 | 99 | 1005.1 |
| 20260507034504 | 52 | 327 | 3.0 | 8.0 | 0.04 | 0.62 | 0.62 | 99 | 1005.1 |
| 20260507033626 | 52 | 312 | 2.0 | 5.0 | 0.04 | 0.62 | 0.62 | 99 | 1005.1 |
| 20260507032705 | 52 | 308 | 3.0 | 8.0 | 0.04 | 0.62 | 0.61 | 99 | 1005.1 |
| 20260507031803 | 53 | 293 | 3.0 | 6.0 | 0.04 | 0.61 | 0.61 | 99 | 1005.1 |
| 20260507030903 | 54 | 312 | 3.0 | 6.0 | 0.02 | 0.58 | 0.59 | 99 | 1005.1 |
| 20260507030004 | 54 | 280 | 1.0 | 7.0 | 0.02 | 0.58 | 0.58 | 99 | 1005.1 |
| 20260507025425 | 54 | 265 | 1.0 | 4.0 | 0.01 | 0.58 | 0.58 | 99 | 1005.1 |
| 20260507024525 | 54 | 201 | 1.0 | 2.0 | 0.00 | 0.57 | 0.57 | 99 | 1005.1 |
| 20260507023625 | 55 | 273 | 1.0 | 3.0 | 0.00 | 0.57 | 0.57 | 99 | 1005.1 |
| 20260507022705 | 54 | 203 | 2.0 | 5.0 | 0.00 | 0.57 | 0.57 | 99 | 1005.1 |
| 20260507021805 | 54 | 165 | 3.0 | 6.0 | 0.00 | 0.57 | 0.57 | 99 | 1005.1 |
| 20260507020925 | 54 | 154 | 2.0 | 6.0 | 0.00 | 0.57 | 0.57 | 99 | 1005.1 |
| 20260507020004 | 54 | 307 | 1.0 | 3.0 | 0.00 | 0.57 | 0.57 | 99 | 1005.1 |
| 20260507015403 | 54 | 203 | 3.0 | 9.0 | 0.00 | 0.57 | 0.57 | 99 | 1005.1 |
| 20260507014504 | 54 | 169 | 7.0 | 12.0 | 0.00 | 0.57 | 0.57 | 99 | 1005.1 |
| 20260507013624 | 54 | 177 | 5.0 | 12.0 | 0.00 | 0.57 | 0.57 | 99 | 1005.1 |
| 20260507012704 | 54 | 166 | 6.0 | 12.0 | 0.00 | 0.57 | 0.57 | 99 | 1005.1 |
| 20260507011804 | 54 | 168 | 9.0 | 13.0 | 0.00 | 0.57 | 0.57 | 99 | 1005.1 |
| 20260507010903 | 54 | 164 | 8.0 | 16.0 | 0.00 | 0.57 | 0.57 | 99 | 1005.1 |
| 20260507010005 | 54 | 170 | 6.0 | 16.0 | 0.00 | 0.62 | 0.57 | 99 | 1005.1 |
| 20260507005404 | 54 | 167 | 7.0 | 14.0 | 0.00 | 0.62 | 0.57 | 99 | 1005.1 |
| 20260507004504 | 54 | 159 | 8.0 | 14.0 | 0.00 | 0.62 | 0.57 | 99 | 1005.1 |
| 20260507003604 | 55 | 165 | 8.0 | 18.0 | 0.00 | 0.62 | 0.57 | 99 | 1005.1 |
| 20260507002724 | 55 | 166 | 10.0 | 18.0 | 0.00 | 0.62 | 0.57 | 99 | 1005.1 |
| 20260507001803 | 55 | 165 | 8.0 | 16.0 | 0.00 | 0.62 | 0.57 | 99 | 1005.1 |
| 20260507000904 | 55 | 162 | 8.0 | 15.0 | 0.00 | 0.62 | 0.57 | 99 | 1005.1 |
| 20260507000004 | 55 | 157 | 8.0 | 13.0 | 0.00 | 0.62 | 0.57 | 99 | 1005.1 |
| 20260506235424 | 55 | 158 | 8.0 | 14.0 | 0.00 | 0.62 | 0.57 | 99 | 1005.1 |
| 20260506234504 | 55 | 164 | 7.0 | 14.0 | 0.00 | 0.62 | 0.57 | 99 | 1005.1 |
| 20260506233605 | 55 | 164 | 8.0 | 14.0 | 0.00 | 0.62 | 0.57 | 99 | 1005.1 |
| 20260506232703 | 55 | 153 | 7.0 | 16.0 | 0.00 | 0.66 | 0.57 | 99 | 1005.1 |
| 20260506231803 | 55 | 150 | 7.0 | 11.0 | 0.00 | 0.66 | 0.57 | 99 | 1005.1 |
| 20260506230924 | 55 | 158 | 7.0 | 12.0 | 0.01 | 0.66 | 0.57 | 99 | 1005.1 |
| 20260506230025 | 55 | 158 | 6.0 | 12.0 | 0.02 | 0.66 | 0.57 | 99 | 1005.1 |
| 20260506225405 | 55 | 162 | 6.0 | 11.0 | 0.02 | 0.68 | 0.57 | 99 | 1005.1 |
| 20260506224503 | 55 | 151 | 5.0 | 11.0 | 0.02 | 0.75 | 0.57 | 99 | 1005.1 |
| 20260506223603 | 55 | 157 | 5.0 | 13.0 | 0.04 | 0.76 | 0.57 | 99 | 1005.1 |
| 20260506222703 | 55 | 158 | 5.0 | 12.0 | 0.04 | 0.75 | 0.56 | 99 | 1005.1 |
| 20260506221803 | 55 | 157 | 5.0 | 10.0 | 0.06 | 0.75 | 0.56 | 99 | 1005.1 |
| 20260506220903 | 55 | 155 | 4.0 | 8.0 | 0.10 | 0.74 | 0.56 | 99 | 1005.1 |
| 20260506220003 | 55 | 157 | 3.0 | 7.0 | 0.09 | 0.74 | 0.55 | 99 | 1005.1 |
| 20260506215405 | 55 | 134 | 4.0 | 8.0 | 0.16 | 0.74 | 0.55 | 99 | 1005.1 |
| 20260506214505 | 55 | 151 | 3.0 | 8.0 | 0.18 | 0.74 | 0.55 | 99 | 1005.1 |
| 20260506213603 | 55 | 149 | 3.0 | 6.0 | 0.18 | 0.72 | 0.53 | 99 | 1005.1 |